BREEZE-M DEB, 41317

Orbit data source: Space-Track

BREEZE-M DEB, 41317 is space debris in HEO originally from a launch on Thu, 17 May 2012 UTC launched from the Tyuratam Missile And Space Complex (TTMTR). Debris objects in space refer to the collection of defunct objects orbiting the Earth. Examples of debris include non-operational satellites, rocket bodies, and fragments generated from explosions, collisions, or faulty payload assembly.

Loading next visibility...
Identifier
41317, 2012-026D
Orbit
HEO
Last TLE update
3 days ago
Origin
Manufacturer
Khrunichev
Mission
Spacecraft
Bus & Motor
Unknown
Mass
Unknown
Launch date (UTC)
2012-05-17 (13 years ago)
Launch vehicle
Unknown
Launch site
Tyuratam Missile And Space Complex (TTMTR)
Object type
Payload
Rocket body
Debris
Shape & HBR
Unknown
Radar Cross Section
Medium (>0.1 m² and <1 m²)

Expand to show TLE details & history

TLE from 3 days ago
0 BREEZE-M DEB
1 41317U 12026D   25181.68120438 -.00000072  00000-0  00000-0 0  9996
2 41317  10.0888 157.5402 4088878   7.6837 356.9184  1.79270027 62280
Epoch: 2025-06-30T16:20Z
TLE epoch observation values (Epoch: 2025-06-30T16:20:56.058Z)
Latitude
-0°
Longitude
-6.74635°
Altitude
10,599.234 km
Speed
5.747 km/s
True Right ascension
10h 29m 53s
True Declination
0° 00' 00"
Sunlit
Object was in daylight at epoch
Visualization orbit readout
Latitude
8.87705°
Longitude
111.6007°
Altitude
21,361.449 km
Speed
3.849 km/s
Apparent Right ascension
17h 46m 16s
Apparent Declination
0° 23' 56"
Sunlit
Object is in daylight
Visualization observer readout
Local Sidereal Time
01:29:50
Azimuth
287.61° WNW
Elevation
-19.296°
Doppler factor
1
Orbital elements
Apogee altitude
33,952.588 km
Perigee altitude
10,543 km
Semi-major axis
28,625.931 km
Eccentricity
0.40889
Inclination
10.0888°
RAAN
157.5402°
Arg. of periapsis
7.6837°
True anomaly
Unknown
Mean anomaly
356.9184°
Eccentric anomaly
Unknown
Mean motion
0.44813 °/min
Orbital period
803.34 mins
BSTAR
0
Loading maneuver chart data...
Loading SW <> Apogee altitude chart data...
Loading historical data...
Loading historical data...
Loading historical data...
Loading historical data...
Loading historical data...
Loading historical data...
Loading historical data...

BREEZE-M DEB Visibility forecast

Observer location: undefined°, undefined°

Span
Click to sort rows by Start time (UTC) header in descending order
Start Az.
Max El. time (UTC)
Max El. Az.
Max El.
End time (UTC)
End Az.
630 mins2025-07-04 00:24:58.311Z233.462° WSW2025-07-04 01:25:58.311Z163.132° S33.746°2025-07-04 10:54:58.311Z122.198° SE
|